Time,TemperatureF,DewpointF,PressureIn,WindDirection,WindDirectionDegrees,WindSpeedMPH,WindSpeedGustMPH,Humidity,HourlyPrecipIn,Conditions,Clouds,dailyrainin,SoftwareType,DateUTC
2013-01-20 00:50:00,36.0,-3.5,29.97,SSW,206,5.0,5.0,18,0.00,,,0.00,Wunderground v.1.15,2013-01-20 07:50:00,
2013-01-20 00:55:00,36.0,-3.5,29.97,SSE,152,4.0,20.0,18,0.00,,,0.00,Wunderground v.1.15,2013-01-20 07:55:00,
2013-01-20 01:05:00,35.9,-3.6,29.96,SW,227,3.0,3.0,18,0.00,,,0.00,Wunderground v.1.15,2013-01-20 08:05:00,
2013-01-20 01:10:00,36.0,-3.5,29.96,SSW,206,6.0,6.0,18,0.00,,,0.00,Wunderground v.1.15,2013-01-20 08:10:00,
2013-01-20 01:15:00,35.8,-3.7,29.96,WNW,295,6.0,11.0,18,0.00,,,0.00,Wunderground v.1.15,2013-01-20 08:15:00,
2013-01-20 01:25:00,36.2,-4.5,29.96,South,176,8.0,8.0,17,0.00,,,0.00,Wunderground v.1.15,2013-01-20 08:25:00,
2013-01-20 01:30:00,36.3,-3.2,29.96,South,188,8.0,17.0,18,0.00,,,0.00,Wunderground v.1.15,2013-01-20 08:30:00,
2013-01-20 01:40:00,36.2,-3.3,29.96,SSW,200,5.0,6.0,18,0.00,,,0.00,Wunderground v.1.15,2013-01-20 08:40:00,
2013-01-20 01:45:00,35.9,-2.4,29.97,West,277,3.0,5.0,19,0.00,,,0.00,Wunderground v.1.15,2013-01-20 08:45:00,
2013-01-20 01:55:00,36.3,-2.1,29.97,SSW,193,5.0,5.0,19,0.00,,,0.00,Wunderground v.1.15,2013-01-20 08:55:00,
2013-01-20 02:05:00,35.9,-2.4,29.97,West,267,5.0,7.0,19,0.00,,,0.00,Wunderground v.1.15,2013-01-20 09:05:00,
2013-01-20 02:10:00,36.0,-1.3,29.97,WNW,287,4.0,10.0,20,0.00,,,0.00,Wunderground v.1.15,2013-01-20 09:10:00,
2013-01-20 02:15:00,36.0,-2.4,29.96,South,181,4.0,10.0,19,0.00,,,0.00,Wunderground v.1.15,2013-01-20 09:15:00,
2013-01-20 02:25:00,35.9,-2.4,29.96,South,172,4.0,5.0,19,0.00,,,0.00,Wunderground v.1.15,2013-01-20 09:25:00,
2013-01-20 02:30:00,35.9,-2.4,29.99,West,263,5.0,9.0,19,0.00,,,0.00,Wunderground v.1.15,2013-01-20 09:30:00,
2013-01-20 02:40:00,35.8,-1.4,29.99,SSW,193,4.0,4.0,20,0.00,,,0.00,Wunderground v.1.15,2013-01-20 09:40:00,
2013-01-20 02:45:00,35.8,-1.4,29.98,SE,145,6.0,6.0,20,0.00,,,0.00,Wunderground v.1.15,2013-01-20 09:45:00,
2013-01-20 02:55:00,35.8,-2.5,29.98,South,188,7.0,7.0,19,0.00,,,0.00,Wunderground v.1.15,2013-01-20 09:55:00,
2013-01-20 03:05:00,35.6,-2.7,30.00,WNW,302,6.0,13.0,19,0.00,,,0.00,Wunderground v.1.15,2013-01-20 10:05:00,
2013-01-20 03:15:00,35.5,-2.8,29.97,NW,309,5.0,17.0,19,0.00,,,0.00,Wunderground v.1.15,2013-01-20 10:15:00,
2013-01-20 03:25:00,35.3,-1.9,29.97,NNW,337,7.0,19.0,20,0.00,,,0.00,Wunderground v.1.15,2013-01-20 10:25:00,
2013-01-20 03:30:00,35.2,-1.9,29.98,WNW,288,4.0,4.0,20,0.00,,,0.00,Wunderground v.1.15,2013-01-20 10:30:00,
2013-01-20 03:40:00,35.0,-2.1,29.98,WNW,284,8.0,8.0,20,0.00,,,0.00,Wunderground v.1.15,2013-01-20 10:40:00,
2013-01-20 03:45:00,34.9,-2.2,29.97,SW,217,8.0,12.0,20,0.00,,,0.00,Wunderground v.1.15,2013-01-20 10:45:00,
2013-01-20 03:55:00,34.9,-2.2,29.97,NW,311,8.0,9.0,20,0.00,,,0.00,Wunderground v.1.15,2013-01-20 10:55:00,
2013-01-20 04:05:00,34.9,-3.3,29.99,West,278,9.0,9.0,19,0.00,,,0.00,Wunderground v.1.15,2013-01-20 11:05:00,
2013-01-20 04:10:00,34.9,-3.3,29.99,WNW,282,9.0,9.0,19,0.00,,,0.00,Wunderground v.1.15,2013-01-20 11:10:00,
2013-01-20 04:15:00,34.6,-3.5,29.98,WNW,295,5.0,9.0,19,0.00,,,0.00,Wunderground v.1.15,2013-01-20 11:15:00,
2013-01-20 04:25:00,34.3,-3.8,29.98,West,275,5.0,13.0,19,0.00,,,0.00,Wunderground v.1.15,2013-01-20 11:25:00,
2013-01-20 04:30:00,34.4,-2.6,29.99,SW,233,6.0,6.0,20,0.00,,,0.00,Wunderground v.1.15,2013-01-20 11:30:00,
2013-01-20 04:40:00,34.7,-3.4,29.99,ESE,106,6.0,6.0,19,0.00,,,0.00,Wunderground v.1.15,2013-01-20 11:40:00,
2013-01-20 04:45:00,34.7,-3.4,29.98,WNW,289,7.0,7.0,19,0.00,,,0.00,Wunderground v.1.15,2013-01-20 11:45:00,
2013-01-20 04:55:00,34.9,-4.4,29.98,SSW,195,6.0,16.0,18,0.00,,,0.00,Wunderground v.1.15,2013-01-20 11:55:00,
2013-01-20 05:00:00,34.9,-4.4,29.99,NE,51,7.0,7.0,18,0.00,,,0.00,Wunderground v.1.15,2013-01-20 12:00:00,
2013-01-20 05:10:00,34.9,-4.4,29.99,NW,325,8.0,8.0,18,0.00,,,0.00,Wunderground v.1.15,2013-01-20 12:10:00,
2013-01-20 05:15:00,34.7,-4.6,30.00,SE,130,5.0,8.0,18,0.00,,,0.00,Wunderground v.1.15,2013-01-20 12:15:00,
2013-01-20 05:25:00,34.7,-4.6,30.00,North,0,6.0,9.0,18,0.00,,,0.00,Wunderground v.1.15,2013-01-20 12:25:00,
2013-01-20 05:30:00,34.7,-4.6,30.02,North,359,6.0,6.0,18,0.00,,,0.00,Wunderground v.1.15,2013-01-20 12:30:00,
2013-01-20 05:40:00,34.6,-4.7,30.02,WNW,295,4.0,10.0,18,0.00,,,0.00,Wunderground v.1.15,2013-01-20 12:40:00,
2013-01-20 05:45:00,34.6,-4.7,30.03,SSE,164,4.0,10.0,18,0.00,,,0.00,Wunderground v.1.15,2013-01-20 12:45:00,
2013-01-20 05:55:00,34.6,-5.8,30.03,South,179,2.0,11.0,17,0.00,,,0.00,Wunderground v.1.15,2013-01-20 12:55:00,
2013-01-20 06:00:00,34.9,-5.6,30.05,SSW,203,4.0,4.0,17,0.00,,,0.00,Wunderground v.1.15,2013-01-20 13:00:00,
2013-01-20 06:10:00,34.4,-6.0,30.05,SW,226,2.0,2.0,17,0.00,,,0.00,Wunderground v.1.15,2013-01-20 13:10:00,
2013-01-20 06:15:00,34.4,-6.0,30.06,SSW,198,2.0,2.0,17,0.00,,,0.00,Wunderground v.1.15,2013-01-20 13:15:00,
2013-01-20 06:20:00,34.3,-6.1,30.06,WNW,291,2.0,2.0,17,0.00,,,0.00,Wunderground v.1.15,2013-01-20 13:20:00,
2013-01-20 06:30:00,34.3,-6.1,30.06,SE,143,3.0,3.0,17,0.00,,,0.00,Wunderground v.1.15,2013-01-20 13:30:00,
2013-01-20 06:35:00,34.1,-6.3,30.06,SSW,205,2.0,3.0,17,0.00,,,0.00,Wunderground v.1.15,2013-01-20 13:35:00,
2013-01-20 06:45:00,34.3,-7.3,30.05,ESE,121,3.0,8.0,16,0.00,,,0.00,Wunderground v.1.15,2013-01-20 13:45:00,
2013-01-20 06:50:00,34.3,-7.3,30.05,WNW,292,4.0,13.0,16,0.00,,,0.00,Wunderground v.1.15,2013-01-20 13:50:00,
2013-01-20 07:00:00,34.4,-8.6,30.05,WSW,246,3.0,3.0,15,0.00,,,0.00,Wunderground v.1.15,2013-01-20 14:00:00,
2013-01-20 07:10:00,34.4,-7.3,30.05,WNW,292,3.0,3.0,16,0.00,,,0.00,Wunderground v.1.15,2013-01-20 14:10:00,
2013-01-20 07:15:00,34.6,-7.1,30.05,West,275,3.0,3.0,16,0.00,,,0.00,Wunderground v.1.15,2013-01-20 14:15:00,
2013-01-20 07:20:00,34.3,-8.7,30.05,West,267,2.0,2.0,15,0.00,,,0.00,Wunderground v.1.15,2013-01-20 14:20:00,
2013-01-20 07:30:00,34.4,-10.0,30.07,South,174,1.0,1.0,14,0.00,,,0.00,Wunderground v.1.15,2013-01-20 14:30:00,
2013-01-20 07:40:00,34.3,-8.7,30.07,SSW,203,0.0,1.0,15,0.00,,,0.00,Wunderground v.1.15,2013-01-20 14:40:00,
2013-01-20 07:45:00,34.0,-7.6,30.08,West,281,0.0,1.0,16,0.00,,,0.00,Wunderground v.1.15,2013-01-20 14:45:00,
2013-01-20 07:55:00,33.7,-7.8,30.08,WNW,288,0.0,0.0,16,0.00,,,0.00,Wunderground v.1.15,2013-01-20 14:55:00,
2013-01-20 08:00:00,32.5,-7.6,30.09,WNW,288,0.0,0.0,17,0.00,,,0.00,Wunderground v.1.15,2013-01-20 15:00:00,
2013-01-20 08:10:00,30.9,-6.6,30.09,WNW,288,0.0,0.0,19,0.00,,,0.00,Wunderground v.1.15,2013-01-20 15:10:00,
2013-01-20 08:15:00,30.3,-7.1,30.12,WNW,288,0.0,0.0,19,0.00,,,0.00,Wunderground v.1.15,2013-01-20 15:15:00,
2013-01-20 08:25:00,30.4,-7.0,30.12,WNW,288,0.0,0.0,19,0.00,,,0.00,Wunderground v.1.15,2013-01-20 15:25:00,
2013-01-20 08:30:00,31.8,-7.0,30.12,WNW,301,0.0,0.0,18,0.00,,,0.00,Wunderground v.1.15,2013-01-20 15:30:00,
2013-01-20 08:40:00,33.4,-6.8,30.12,SW,216,0.0,0.0,17,0.00,,,0.00,Wunderground v.1.15,2013-01-20 15:40:00,
2013-01-20 08:45:00,34.1,-7.5,30.09,SSW,210,0.0,1.0,16,0.00,,,0.00,Wunderground v.1.15,2013-01-20 15:45:00,
2013-01-20 08:55:00,34.6,-7.1,30.09,WSW,240,1.0,1.0,16,0.00,,,0.00,Wunderground v.1.15,2013-01-20 15:55:00,
2013-01-20 09:00:00,34.7,-7.0,30.09,SSW,192,1.0,1.0,16,0.00,,,0.00,Wunderground v.1.15,2013-01-20 16:00:00,
2013-01-20 09:10:00,35.3,-7.8,30.09,West,270,1.0,1.0,15,0.00,,,0.00,Wunderground v.1.15,2013-01-20 16:10:00,
2013-01-20 09:15:00,35.5,-6.4,30.10,WNW,287,1.0,1.0,16,0.00,,,0.00,Wunderground v.1.15,2013-01-20 16:15:00,
2013-01-20 09:25:00,36.0,-7.3,30.10,West,261,1.0,1.0,15,0.00,,,0.00,Wunderground v.1.15,2013-01-20 16:25:00,
2013-01-20 09:30:00,36.9,-8.0,30.08,WNW,289,2.0,5.0,14,0.00,,,0.00,Wunderground v.1.15,2013-01-20 16:30:00,
2013-01-20 09:40:00,37.5,-7.5,30.08,WNW,282,4.0,4.0,14,0.00,,,0.00,Wunderground v.1.15,2013-01-20 16:40:00,
2013-01-20 09:45:00,37.0,-6.5,30.08,WNW,284,3.0,8.0,15,0.00,,,0.00,Wunderground v.1.15,2013-01-20 16:45:00,
2013-01-20 09:55:00,36.5,-6.9,30.08,South,184,2.0,2.0,15,0.00,,,0.00,Wunderground v.1.15,2013-01-20 16:55:00,
2013-01-20 10:00:00,36.5,-6.9,30.08,WNW,284,1.0,1.0,15,0.00,,,0.00,Wunderground v.1.15,2013-01-20 17:00:00,
2013-01-20 10:10:00,36.8,-6.6,30.08,West,271,1.0,1.0,15,0.00,,,0.00,Wunderground v.1.15,2013-01-20 17:10:00,
2013-01-20 10:15:00,36.9,-6.5,30.08,WNW,302,1.0,1.0,15,0.00,,,0.00,Wunderground v.1.15,2013-01-20 17:15:00,
2013-01-20 10:25:00,37.0,-6.5,30.08,WNW,291,1.0,3.0,15,0.00,,,0.00,Wunderground v.1.15,2013-01-20 17:25:00,
2013-01-20 10:30:00,37.0,-6.5,30.08,West,275,1.0,1.0,15,0.00,,,0.00,Wunderground v.1.15,2013-01-20 17:30:00,
2013-01-20 10:40:00,37.2,-6.3,30.08,WNW,285,0.0,1.0,15,0.00,,,0.00,Wunderground v.1.15,2013-01-20 17:40:00,
2013-01-20 10:45:00,37.6,-7.4,30.08,North,11,1.0,1.0,14,0.00,,,0.00,Wunderground v.1.15,2013-01-20 17:45:00,
2013-01-20 10:55:00,38.9,-4.9,30.08,South,189,2.0,3.0,15,0.00,,,0.00,Wunderground v.1.15,2013-01-20 17:55:00,
2013-01-20 11:00:00,39.3,-6.0,30.06,WNW,288,3.0,3.0,14,0.00,,,0.00,Wunderground v.1.15,2013-01-20 18:00:00,
2013-01-20 11:10:00,39.9,-5.5,30.06,SW,215,2.0,2.0,14,0.00,,,0.00,Wunderground v.1.15,2013-01-20 18:10:00,
2013-01-20 11:15:00,40.5,-5.1,30.05,WNW,288,1.0,2.0,14,0.00,,,0.00,Wunderground v.1.15,2013-01-20 18:15:00,
2013-01-20 11:25:00,41.1,-6.1,30.05,WNW,295,2.0,2.0,13,0.00,,,0.00,Wunderground v.1.15,2013-01-20 18:25:00,
2013-01-20 11:30:00,41.2,-4.5,30.05,SSW,213,2.0,2.0,14,0.00,,,0.00,Wunderground v.1.15,2013-01-20 18:30:00,
2013-01-20 11:40:00,41.6,-4.2,30.05,South,179,2.0,2.0,14,0.00,,,0.00,Wunderground v.1.15,2013-01-20 18:40:00,
2013-01-20 11:45:00,41.2,-4.5,30.04,SSW,193,2.0,2.0,14,0.00,,,0.00,Wunderground v.1.15,2013-01-20 18:45:00,
2013-01-20 11:55:00,40.3,-3.8,30.04,SW,236,3.0,3.0,15,0.00,,,0.00,Wunderground v.1.15,2013-01-20 18:55:00,
2013-01-20 12:05:00,40.9,-3.3,30.05,South,176,1.0,2.0,15,0.00,,,0.00,Wunderground v.1.15,2013-01-20 19:05:00,
2013-01-20 12:10:00,40.6,-3.5,30.05,West,281,2.0,7.0,15,0.00,,,0.00,Wunderground v.1.15,2013-01-20 19:10:00,
2013-01-20 12:15:00,40.5,-3.6,30.02,SE,141,3.0,7.0,15,0.00,,,0.00,Wunderground v.1.15,2013-01-20 19:15:00,
2013-01-20 12:25:00,40.3,-3.8,30.02,SSE,160,3.0,7.0,15,0.00,,,0.00,Wunderground v.1.15,2013-01-20 19:25:00,
2013-01-20 12:30:00,40.1,-2.6,30.03,West,261,3.0,3.0,16,0.00,,,0.00,Wunderground v.1.15,2013-01-20 19:30:00,
2013-01-20 12:40:00,40.1,-2.6,30.03,SW,217,2.0,2.0,16,0.00,,,0.00,Wunderground v.1.15,2013-01-20 19:40:00,
2013-01-20 12:45:00,39.9,-2.8,30.02,SSW,208,3.0,3.0,16,0.00,,,0.00,Wunderground v.1.15,2013-01-20 19:45:00,
2013-01-20 12:55:00,39.9,-2.8,30.02,West,281,2.0,2.0,16,0.00,,,0.00,Wunderground v.1.15,2013-01-20 19:55:00,
2013-01-20 13:00:00,40.1,-1.3,30.00,SW,223,3.0,3.0,17,0.00,,,0.00,Wunderground v.1.15,2013-01-20 20:00:00,
2013-01-20 13:10:00,40.1,-1.3,30.00,WNW,291,2.0,6.0,17,0.00,,,0.00,Wunderground v.1.15,2013-01-20 20:10:00,
2013-01-20 13:15:00,39.9,-1.5,30.00,WNW,288,2.0,6.0,17,0.00,,,0.00,Wunderground v.1.15,2013-01-20 20:15:00,
2013-01-20 13:20:00,40.1,-1.3,30.00,South,186,1.0,4.0,17,0.00,,,0.00,Wunderground v.1.15,2013-01-20 20:20:00,
2013-01-20 13:30:00,40.2,-1.2,29.99,North,356,1.0,1.0,17,0.00,,,0.00,Wunderground v.1.15,2013-01-20 20:30:00,
2013-01-20 13:40:00,40.5,-1.0,29.99,South,181,1.0,1.0,17,0.00,,,0.00,Wunderground v.1.15,2013-01-20 20:40:00,
2013-01-20 13:45:00,40.5,-1.0,29.99,WNW,294,2.0,2.0,17,0.00,,,0.00,Wunderground v.1.15,2013-01-20 20:45:00,
2013-01-20 13:55:00,40.1,-0.1,29.99,NW,320,3.0,3.0,18,0.00,,,0.00,Wunderground v.1.15,2013-01-20 20:55:00,
2013-01-20 14:00:00,40.2,0.0,29.98,South,181,1.0,1.0,18,0.00,,,0.00,Wunderground v.1.15,2013-01-20 21:00:00,
2013-01-20 14:30:00,40.3,-1.1,29.99,NW,304,2.0,2.0,17,0.00,,,0.00,Wunderground v.1.15,2013-01-20 21:30:00,
2013-01-20 14:40:00,39.9,-1.5,29.99,NNW,332,4.0,4.0,17,0.00,,,0.00,Wunderground v.1.15,2013-01-20 21:40:00,
2013-01-20 14:45:00,40.3,-1.1,29.99,WNW,289,3.0,4.0,17,0.00,,,0.00,Wunderground v.1.15,2013-01-20 21:45:00,
2013-01-20 14:55:00,39.8,-1.6,29.99,WNW,291,3.0,3.0,17,0.00,,,0.00,Wunderground v.1.15,2013-01-20 21:55:00,
2013-01-20 15:00:00,39.6,-1.7,29.99,NNW,329,3.0,16.0,17,0.00,,,0.00,Wunderground v.1.15,2013-01-20 22:00:00,
2013-01-20 15:10:00,39.5,-1.8,29.99,North,349,3.0,3.0,17,0.00,,,0.00,Wunderground v.1.15,2013-01-20 22:10:00,
2013-01-20 15:15:00,39.5,-1.8,29.99,NW,325,2.0,3.0,17,0.00,,,0.00,Wunderground v.1.15,2013-01-20 22:15:00,
2013-01-20 15:25:00,39.3,-2.0,29.99,NNW,329,1.0,2.0,17,0.00,,,0.00,Wunderground v.1.15,2013-01-20 22:25:00,
2013-01-20 15:30:00,39.2,-2.1,30.00,SSW,192,2.0,2.0,17,0.00,,,0.00,Wunderground v.1.15,2013-01-20 22:30:00,
2013-01-20 15:40:00,38.9,-2.3,30.00,WNW,284,1.0,1.0,17,0.00,,,0.00,Wunderground v.1.15,2013-01-20 22:40:00,
2013-01-20 15:45:00,38.8,-1.2,30.00,NNW,335,0.0,1.0,18,0.00,,,0.00,Wunderground v.1.15,2013-01-20 22:45:00,
2013-01-20 15:55:00,38.3,-0.4,30.00,West,271,1.0,2.0,19,0.00,,,0.00,Wunderground v.1.15,2013-01-20 22:55:00,
2013-01-20 16:01:00,38.0,-1.8,30.02,NNW,328,1.0,1.0,18,0.00,,,0.00,Wunderground v.1.15,2013-01-20 23:01:00,
2013-01-20 16:10:00,37.5,-2.2,30.02,NNW,340,0.0,0.0,18,0.00,,,0.00,Wunderground v.1.15,2013-01-20 23:10:00,
2013-01-20 16:15:00,37.2,-1.4,30.02,NNW,335,0.0,0.0,19,0.00,,,0.00,Wunderground v.1.15,2013-01-20 23:15:00,
2013-01-20 16:25:00,36.9,-1.6,30.02,West,281,0.0,0.0,19,0.00,,,0.00,Wunderground v.1.15,2013-01-20 23:25:00,
2013-01-20 16:30:00,36.9,-0.5,30.01,WNW,298,0.0,0.0,20,0.00,,,0.00,Wunderground v.1.15,2013-01-20 23:30:00,
2013-01-20 16:40:00,36.8,-1.7,30.01,WNW,284,0.0,1.0,19,0.00,,,0.00,Wunderground v.1.15,2013-01-20 23:40:00,
2013-01-20 16:50:00,36.5,-0.9,30.02,South,172,0.0,0.0,20,0.00,,,0.00,Wunderground v.1.15,2013-01-20 23:50:00,
2013-01-20 16:55:00,36.2,-1.1,30.02,WNW,294,0.0,1.0,20,0.00,,,0.00,Wunderground v.1.15,2013-01-20 23:55:00,
2013-01-20 17:00:00,36.2,-1.1,30.04,West,277,1.0,1.0,20,0.00,,,0.00,Wunderground v.1.15,2013-01-21 00:00:00,
2013-01-20 17:10:00,36.3,-1.0,30.04,South,181,2.0,2.0,20,0.00,,,0.00,Wunderground v.1.15,2013-01-21 00:10:00,
2013-01-20 17:15:00,36.3,-1.0,30.04,West,272,1.0,2.0,20,0.00,,,0.00,Wunderground v.1.15,2013-01-21 00:15:00,
2013-01-20 17:25:00,36.3,-1.0,30.04,SW,223,1.0,6.0,20,0.00,,,0.00,Wunderground v.1.15,2013-01-21 00:25:00,
2013-01-20 17:30:00,36.3,-1.0,30.05,WNW,285,2.0,2.0,20,0.00,,,0.00,Wunderground v.1.15,2013-01-21 00:30:00,
2013-01-20 17:40:00,35.9,-1.4,30.05,WNW,295,1.0,2.0,20,0.00,,,0.00,Wunderground v.1.15,2013-01-21 00:40:00,
2013-01-20 17:45:00,35.8,-1.4,30.06,West,270,1.0,10.0,20,0.00,,,0.00,Wunderground v.1.15,2013-01-21 00:45:00,
2013-01-20 17:55:00,35.5,-1.7,30.06,NW,318,2.0,10.0,20,0.00,,,0.00,Wunderground v.1.15,2013-01-21 00:55:00,
2013-01-20 18:00:00,35.5,-0.7,30.06,NW,308,2.0,2.0,21,0.00,,,0.00,Wunderground v.1.15,2013-01-21 01:00:00,
2013-01-20 18:10:00,35.2,-0.9,30.06,NNW,328,1.0,1.0,21,0.00,,,0.00,Wunderground v.1.15,2013-01-21 01:10:00,
2013-01-20 18:15:00,35.0,-1.1,30.08,West,274,2.0,2.0,21,0.00,,,0.00,Wunderground v.1.15,2013-01-21 01:15:00,
2013-01-20 18:25:00,34.6,-1.4,30.08,SSE,168,2.0,2.0,21,0.00,,,0.00,Wunderground v.1.15,2013-01-21 01:25:00,
2013-01-20 18:30:00,34.7,-1.3,30.06,WNW,292,3.0,3.0,21,0.00,,,0.00,Wunderground v.1.15,2013-01-21 01:30:00,
2013-01-20 18:40:00,34.6,-1.4,30.06,SW,230,3.0,3.0,21,0.00,,,0.00,Wunderground v.1.15,2013-01-21 01:40:00,
2013-01-20 18:45:00,34.4,-0.6,30.06,SSW,193,1.0,3.0,22,0.00,,,0.00,Wunderground v.1.15,2013-01-21 01:45:00,
2013-01-20 18:55:00,34.3,-0.7,30.06,South,179,1.0,1.0,22,0.00,,,0.00,Wunderground v.1.15,2013-01-21 01:55:00,
2013-01-20 19:00:00,34.3,-0.7,30.08,WNW,295,2.0,6.0,22,0.00,,,0.00,Wunderground v.1.15,2013-01-21 02:00:00,
2013-01-20 19:10:00,34.0,0.0,30.08,WSW,237,1.0,1.0,23,0.00,,,0.00,Wunderground v.1.15,2013-01-21 02:10:00,
2013-01-20 19:15:00,33.8,-0.2,30.08,West,260,1.0,1.0,23,0.00,,,0.00,Wunderground v.1.15,2013-01-21 02:15:00,
2013-01-20 19:25:00,33.8,-0.2,30.08,WNW,282,1.0,2.0,23,0.00,,,0.00,Wunderground v.1.15,2013-01-21 02:25:00,
2013-01-20 19:30:00,33.5,-0.4,30.13,SSW,202,1.0,1.0,23,0.00,,,0.00,Wunderground v.1.15,2013-01-21 02:30:00,
2013-01-20 19:40:00,33.4,-0.5,30.13,WSW,254,1.0,2.0,23,0.00,,,0.00,Wunderground v.1.15,2013-01-21 02:40:00,
2013-01-20 19:45:00,33.5,-0.4,30.14,South,191,1.0,2.0,23,0.00,,,0.00,Wunderground v.1.15,2013-01-21 02:45:00,
2013-01-20 19:55:00,33.2,-0.7,30.14,SSW,212,1.0,1.0,23,0.00,,,0.00,Wunderground v.1.15,2013-01-21 02:55:00,
2013-01-20 20:00:00,33.1,1.9,30.13,NNE,17,1.0,1.0,26,0.00,,,0.00,Wunderground v.1.15,2013-01-21 03:00:00,
2013-01-20 20:10:00,30.6,4.9,30.13,East,86,0.0,0.0,33,0.00,,,0.00,Wunderground v.1.15,2013-01-21 03:10:00,
2013-01-20 20:15:00,28.5,6.1,30.15,NE,55,0.0,0.0,38,0.00,,,0.00,Wunderground v.1.15,2013-01-21 03:15:00,
2013-01-20 20:25:00,26.7,6.1,30.15,North,4,0.0,0.0,41,0.00,,,0.00,Wunderground v.1.15,2013-01-21 03:25:00,
2013-01-20 20:30:00,25.8,5.8,30.13,ENE,58,0.0,0.0,42,0.00,,,0.00,Wunderground v.1.15,2013-01-21 03:30:00,
2013-01-20 20:40:00,24.8,6.4,30.13,NE,34,0.0,0.0,45,0.00,,,0.00,Wunderground v.1.15,2013-01-21 03:40:00,
2013-01-20 20:45:00,24.2,5.9,30.15,SSW,206,0.0,0.0,45,0.00,,,0.00,Wunderground v.1.15,2013-01-21 03:45:00,
2013-01-20 20:55:00,25.1,5.2,30.15,WNW,289,0.0,7.0,42,0.00,,,0.00,Wunderground v.1.15,2013-01-21 03:55:00,
2013-01-20 21:00:00,25.3,5.9,30.15,North,0,1.0,1.0,43,0.00,,,0.00,Wunderground v.1.15,2013-01-21 04:00:00,
2013-01-20 21:10:00,24.4,5.6,30.15,NNW,339,0.0,0.0,44,0.00,,,0.00,Wunderground v.1.15,2013-01-21 04:10:00,
2013-01-20 21:15:00,24.1,5.8,30.16,North,354,0.0,0.0,45,0.00,,,0.00,Wunderground v.1.15,2013-01-21 04:15:00,
2013-01-20 21:25:00,28.2,0.7,30.16,South,191,1.0,1.0,30,0.00,,,0.00,Wunderground v.1.15,2013-01-21 04:25:00,
2013-01-20 21:31:00,31.5,0.5,30.09,West,271,2.0,2.0,26,0.00,,,0.00,Wunderground v.1.15,2013-01-21 04:31:00,
2013-01-20 21:40:00,32.8,0.8,30.09,West,267,1.0,1.0,25,0.00,,,0.00,Wunderground v.1.15,2013-01-21 04:40:00,
2013-01-20 21:45:00,33.2,0.2,30.05,North,6,1.0,2.0,24,0.00,,,0.00,Wunderground v.1.15,2013-01-21 04:45:00,
2013-01-20 21:55:00,33.5,0.5,30.05,North,0,1.0,1.0,24,0.00,,,0.00,Wunderground v.1.15,2013-01-21 04:55:00,
2013-01-20 22:00:00,33.4,0.4,30.06,South,175,1.0,1.0,24,0.00,,,0.00,Wunderground v.1.15,2013-01-21 05:00:00,
2013-01-20 22:05:00,33.7,0.7,30.06,WNW,284,1.0,1.0,24,0.00,,,0.00,Wunderground v.1.15,2013-01-21 05:05:00,
2013-01-20 22:10:00,33.7,-0.2,30.06,WNW,289,3.0,3.0,23,0.00,,,0.00,Wunderground v.1.15,2013-01-21 05:10:00,
2013-01-20 22:15:00,33.5,0.5,30.05,West,281,2.0,3.0,24,0.00,,,0.00,Wunderground v.1.15,2013-01-21 05:15:00,
2013-01-20 22:25:00,33.5,-0.4,30.05,South,185,1.0,2.0,23,0.00,,,0.00,Wunderground v.1.15,2013-01-21 05:25:00,
2013-01-20 22:30:00,33.5,0.5,30.01,SE,134,1.0,1.0,24,0.00,,,0.00,Wunderground v.1.15,2013-01-21 05:30:00,
2013-01-20 22:40:00,33.8,0.8,30.01,South,188,4.0,10.0,24,0.00,,,0.00,Wunderground v.1.15,2013-01-21 05:40:00,
2013-01-20 22:45:00,33.8,0.8,30.02,West,261,2.0,10.0,24,0.00,,,0.00,Wunderground v.1.15,2013-01-21 05:45:00,
2013-01-20 22:55:00,34.1,0.1,30.02,South,169,2.0,2.0,23,0.00,,,0.00,Wunderground v.1.15,2013-01-21 05:55:00,
2013-01-20 23:00:00,34.1,0.1,30.03,NW,312,3.0,3.0,23,0.00,,,0.00,Wunderground v.1.15,2013-01-21 06:00:00,
2013-01-20 23:10:00,34.0,0.0,30.03,SW,224,3.0,6.0,23,0.00,,,0.00,Wunderground v.1.15,2013-01-21 06:10:00,
2013-01-20 23:15:00,33.8,-0.2,30.02,SSW,196,3.0,6.0,23,0.00,,,0.00,Wunderground v.1.15,2013-01-21 06:15:00,
2013-01-20 23:25:00,33.8,-0.2,30.02,SSW,203,3.0,3.0,23,0.00,,,0.00,Wunderground v.1.15,2013-01-21 06:25:00,
2013-01-20 23:30:00,33.5,0.5,30.02,West,277,3.0,7.0,24,0.00,,,0.00,Wunderground v.1.15,2013-01-21 06:30:00,
2013-01-20 23:40:00,33.4,0.4,30.02,WNW,296,3.0,6.0,24,0.00,,,0.00,Wunderground v.1.15,2013-01-21 06:40:00,
2013-01-20 23:45:00,33.8,-0.2,30.01,SSW,192,3.0,6.0,23,0.00,,,0.00,Wunderground v.1.15,2013-01-21 06:45:00,
2013-01-20 23:55:00,33.7,0.7,30.01,WNW,295,2.0,3.0,24,0.00,,,0.00,Wunderground v.1.15,2013-01-21 06:55:00,